Flag for U.S.A. Weather past 2 weeks in Akron, Ohio, U.S.A.

Now
74 °F

Low clouds.


Feels Like: 73 °F
Forecast: 69 / 84 °F
Wind: 9 mph from South

Location: Akron Fulton International Airport

Current Time: Sep 1, 2014 at 10:30:47 AM

Latest Report: Sep 1, 2014 at 9:54 AM


Visibility: 10 mi

Pressure: 29.98 "Hg

Humidity: 85%

Dew point: 69 °F

Location of AkronLocation

Historic Weather in Akron — Graph

°F

Akron temperature yesterday

Maximum temperature yesterday: 79 °F (at 12:54 AM)
Minimum temperature yesterday: 71 °F (at 3:54 AM)
Average temperature yesterday: 74 °F

Past Weeks' High & Low Weather Summary

 TemperatureHumidityPressure
High88 °F (Aug 30, 2:54 PM)93% (Aug 19, 6:54 AM)30.17 "Hg (Aug 19, 6:54 AM)
Low52 °F (Aug 29, 2:54 AM)35% (Aug 29, 5:54 PM)29.79 "Hg (Aug 19, 4:54 PM)
Average73 °F73%30.00 "Hg
* Reported Aug 17 9:03 AM — Sep 1 8:54 AM, Akron, Weather by CustomWeather, © 2014

Note: Actual official high and low records may vary slightly from our data, if they occured in-between our weather recording intervals... More about our weather records

Advertising

Akron weather history for previous 24 hours

 ConditionsComfort  
Time TempWeatherWind HumidityBarometerVisibility
8:54 AM
Sep 1
73 °FOvercast.8 mph84%29.98 "Hg10 mi
7:54 AM72 °FOvercast.7 mph87%29.98 "Hg10 mi
6:54 AM72 °FOvercast.6 mph87%29.98 "Hg9 mi
5:54 AM72 °FOvercast.7 mph87%29.97 "Hg8 mi
4:54 AM72 °FLow clouds.8 mph91%29.98 "Hg9 mi
3:54 AM72 °FLow clouds.8 mph91%29.98 "Hg10 mi
2:54 AM72 °FLow clouds.6 mph91%29.98 "Hg9 mi
1:54 AM72 °FPassing clouds.6 mph91%29.98 "Hg9 mi
12:54 AM73 °FLow clouds.10 mph90%29.98 "Hg7 mi
11:54 PM
Aug 31
73 °FClear.9 mph88%29.98 "Hg9 mi
10:54 PM73 °FClear.8 mph88%29.98 "Hg10 mi
9:54 PM73 °FPassing clouds.5 mph90%29.98 "Hg10 mi
8:54 PM74 °FBroken clouds.7 mph88%29.98 "Hg10 mi
7:54 PM75 °FSunny.7 mph85%29.98 "Hg10 mi
6:54 PM77 °FPassing clouds.6 mph82%29.97 "Hg10 mi
5:54 PM76 °FPartly sunny.6 mph85%29.97 "Hg10 mi
4:54 PM74 °FLight rain. Fog.9 mph88%29.97 "Hg6 mi
3:54 PM78 °FBroken clouds.10 mph74%29.97 "Hg10 mi
2:54 PM77 °FCloudy.15 mph74%29.99 "Hg10 mi
1:54 PM76 °FCloudy.12 mph80%30.00 "Hg10 mi
12:54 PM76 °FLight rain. Cloudy.12 mph80%30.01 "Hg8 mi
11:54 AM74 °FLight rain. Fog.10 mph88%30.01 "Hg3 mi
10:54 AM74 °FFog.12 mph88%30.01 "Hg5 mi
Weather by CustomWeather, © 2014

See weather overviewHow to use our weather pages